Timeline UpdatesTrip UpdatesNews PostsPvt PostsTravel TipsAdmin PostsConv PostsFollowed PostsChat RequestsBlog PostsPNR Posts

Disclaimer
Search
 
 
Mon Jul 28, 2014 19:56:24 ISTHomeTrainsΣChainsAtlasPNRForumGalleryNewsFAQTripsMembersLoginFeedback
Latest...
B4 will be argumented instead of sleeper coach with effect from 27th july
Sun Jul 27, 2014 (09:15PM)
⇐ Return Journey: Train# 12617

12618/Mangala Lakshadweep Express

Jul 01 (6:22PM)
Change Departure Station:
Change Arrival Station:
Post a Train Travel TipPost a Train Travel Tip **new
Post a Comment/Question/Picture/VideoPost a Comment/Question/Picture/Video
Inaugural Run
Sat Aug 01, 1998
Pantry/Catering
✓ Pantry Car Avbl
✓ Catering Avbl
Good Pantry
RSA - Rake Sharing
No RSA.
Rake/Coach Composition
LOCO- SLR-UR-A2-A1-B3-B2-B1-S11-S10-S9-S8,-PC-S7-S6-S5-S4-S3-S2-S1-UR-SLR.
Loco
NZM-IGP: BSL WAP-4 IGP-ERS: ERS WDG3A/WDM 3A
News    PNR    Forum    Time-Table    Availability    Fare Chart    Map    Arr/Dep History    Trips    Gallery    ΣChains    X/O    Timeline    
Travel Time: 24h 5m    16 halts    Distance: 1517 km    Avg Speed: 62 km/hr
Type: SuperFast
Zone: SR/Southern
Departs @ 09:20
Platform# 5
SMTWTFS
Delhi Hazrat Nizamuddin/NZM 
Arrives @ 09:25 +1 night
Platform# 7
SMTWTFS
Panvel Junction/PNVL 

16 halts. 208 intermediate Stations between Delhi Hazrat Nizamuddin and Panvel Junction

Show ALL intermediate Stations  Show Old Time-Table

#CodeStation NameX/OArrivesAvgDepartsAvgHaltPFDay#KmSpeedElevZoneAddress
1NZM»Delhi Hazrat Nizamuddin (7)»  -09:20-510.062209mNRNizamuddin East/Sarai KaleKhan Bus Terminal, Delhi NCT
2FDBFaridabad (4)  09:40-09:42-2m3120.877206mNRold Faridabad, Haryana
3MTJMathura Junction (10)X  11:10-11:13-3m--1133.948179mNCRMathura, Uttar Pradesh
4AGCAgra Cantt. (6)  12:20-12:25-5m11187.690174mNCRAgra, Uttar Pradesh
5MRAMorena (3)  13:18-13:20-2m11267.166176mNCRMorena, Madhya Pradesh
6GWLGwalior Junction (4)X  13:55-14:00-5m11305.665214mNCRGwalior, Madhya Pradesh
7JHSJhansi Junction (7)  15:30-15:38-8m21403.479259mNCRJhansi, Uttar Pradesh
8BINABina Junction (4)X  17:35-17:40-5m21556.672414mWCRJn Pt - KATNI/GUNA/ BPL/JHS, Madhya Pradesh
9BPLBhopal Junction (6)X  19:35-19:45-10m11695.250497mWCRBhopal, Madhya Pradesh
10ETItarsi Junction (7)XO  21:35-21:45-10m21786.976329mWCRItarsi 461111, Madhya Pradesh
11KNWKhandwa Junction (5)  00:10-00:15-5m32970.378310mCRKhandwa, Madhya Pradesh
12BAUBurhanpur (2)X  01:08-01:10-2m121039.273269mCRBurhanpur, Madhya Pradesh
13BSLBhusaval Junction (8)X  01:55-02:05-10m521093.781208mCRBhusaval 425201, Maharashtra
14MMRManmad Junction (6)  04:22-04:25-3m321277.987580mCRManmad 423104, Maharashtra
15NKNasik Road (3)  05:15-05:20-5m321350.638563mCRNashik 422101, Maharashtra
16IGPIgatpuri (4)06:40-06:45-5m--21401.346589mCRIgatpuri 422403, Maharashtra
17KYNKalyan Junction (8)X  08:32-08:35-3m621483.14110mCRKalyan 421301, Maharashtra
18PNVL•Panvel Junction (7)•  09:25-09:30-5m721517.35810mCRPanvel, Maharashtra
19CHIChiplun (2)X  13:00-13:10-10m121721.03012mKRChiplun, Maharashtra
20RNRatnagiri (3)XO  15:40-15:45-5m121796.456129mKRRatnagiri 415612, Maharashtra
21KKWKankavali (2)  17:44-17:46-2m121907.85645mKRKankavli - 416602, Maharashtra
22THVMThivim (2)X  19:10-19:12-2m121986.33521mKRThivim - 403502, Goa
23MAOMadgaon Junction (3)  20:30-20:40-10m222031.26611mKRMadgaon 403601, Goa
24KAWRKarwar (2)  21:36-21:38-2m122092.65414mKRKarwar, Karnataka
25BTJLBhatkal (2)X  23:40-23:42-2m122202.45616mKRBhatkal - 581320, Karnataka
26KUDAKundapura (2)  00:34-00:36-2m--32251.19613mKRBasrur, Karnataka
27UDUdupi (2)X  00:56-00:58-2m132283.14618mKRUdupi, Karnataka
28MAJNMangalore Junction (3)X  02:20-02:30-10m132345.56824mSRMangalore 575001, Karnataka
29KGQKasaragod (3)  03:13-03:15-2m--32394.67718mSRTel: 04994 220800, Kerala
30KZEKanhangad (3)  03:33-03:35-2m--32417.76915mSRKanhangad, Kerala
31NLENileshwar (2)  03:43-03:45-2m--32427.05212mSRNileswaram, Kerala
32PAYPayyanur (3)  04:08-04:10-2m--32447.0870mSRKannur District, Kerala
33PAZPayangadi (2)X  04:18-04:20-2m232458.72912mSRKannur District, Kerala
34CANKannur Main (3)  05:05-05:10-5m332480.66214mSRKannur Tel: 0497 2705555, Kerala
35TLYThalassery (2)  05:30-05:32-2m--32501.3749mSRKannur, Kerala
36BDJVadakara (2)X  05:50-05:52-2m132523.48211mSRCalicut / Station Ph No : 0496-2524254, Kerala
37QLDKoyilandy (3)  06:08-06:10-2m232545.44211mSRQuilandi, Kerala
38CLTKozhikode Main (4)  06:45-06:50-5m132569.74611mSRCalicut Tel: 0495 2701234, Kerala
39FKFerok (2)X  07:03-07:05-2m--32579.77019mSRFeroke, Kerala
40PGIParappangadi (2)  07:18-07:20-2m132594.95419mSRParappanangadi, Kerala
41TIRTirur (3)  07:38-07:40-2m--32610.9509mSRTel: 0494 2422240, Kerala
42KTUKuttippuram (2)  07:58-08:00-2m--32626.08517mSRKuttippuram, Kerala
43PTBPattambi (2)XO  08:13-08:15-2m232644.52821mSRPattambi, Kerala
44SRRShoranur Junction (7)  08:40-08:45-5m332656.06226mSRShoranur ph.no 0466-2222913, Kerala
45TCRThrissur (4)XO  09:17-09:20-3m132689.0666mSRThrissur Tel: 0487 2423150, Kerala
46AWYAluva (3)XO  10:10-10:12-2m--32743.61712mSRPh: 0484-2624141, Kerala
47ERSErnakulam Junction (South) (6)  11:20--332763.0-3mSRErnakulam 682016, Kerala
Scroll to Top
Scroll to Bottom